TimeCST,TemperatureF,Dew PointF,Humidity,Sea Level PressureIn,VisibilityMPH,Wind Direction,Wind SpeedMPH,Gust SpeedMPH,PrecipitationIn,Events,Conditions,WindDirDegrees,DateUTC
12:15 AM,46.4,35.6,66,29.89,10.0,Calm,Calm,-,N/A,,Clear,0,2012-11-09 06:15:00
12:35 AM,42.8,35.6,76,29.89,10.0,Calm,Calm,-,N/A,,Clear,0,2012-11-09 06:35:00
12:55 AM,41.0,33.8,76,29.89,10.0,Calm,Calm,-,N/A,,Clear,0,2012-11-09 06:55:00
1:15 AM,41.0,35.6,81,29.88,10.0,Calm,Calm,-,N/A,,Clear,0,2012-11-09 07:15:00
1:35 AM,42.8,35.6,76,29.88,10.0,Calm,Calm,-,N/A,,Clear,0,2012-11-09 07:35:00
1:55 AM,44.6,35.6,71,29.87,10.0,Calm,Calm,-,N/A,,Clear,0,2012-11-09 07:55:00
2:15 AM,44.6,35.6,71,29.87,10.0,Calm,Calm,-,N/A,,Clear,0,2012-11-09 08:15:00
2:35 AM,44.6,35.6,71,29.87,10.0,Calm,Calm,-,N/A,,Clear,0,2012-11-09 08:35:00
2:55 AM,44.6,35.6,71,29.87,10.0,SSE,3.5,-,N/A,,Clear,150,2012-11-09 08:55:00
3:35 AM,44.6,35.6,71,29.86,10.0,SSE,3.5,-,N/A,,Clear,150,2012-11-09 09:35:00
3:55 AM,44.6,35.6,71,29.86,10.0,Calm,Calm,-,N/A,,Clear,0,2012-11-09 09:55:00
4:15 AM,44.6,35.6,71,29.86,10.0,Calm,Calm,-,N/A,,Clear,0,2012-11-09 10:15:00
4:35 AM,44.6,35.6,71,29.86,10.0,Calm,Calm,-,N/A,,Clear,0,2012-11-09 10:35:00
4:55 AM,44.6,35.6,71,29.86,10.0,SSE,3.5,-,N/A,,Clear,150,2012-11-09 10:55:00
5:15 AM,44.6,35.6,71,29.86,10.0,SSE,4.6,-,N/A,,Clear,160,2012-11-09 11:15:00
5:55 AM,42.8,35.6,76,29.85,10.0,Calm,Calm,-,N/A,,Clear,0,2012-11-09 11:55:00
6:15 AM,44.6,37.4,76,29.85,10.0,Calm,Calm,-,N/A,,Clear,0,2012-11-09 12:15:00
6:35 AM,46.4,37.4,71,29.84,10.0,SE,3.5,-,N/A,,Clear,140,2012-11-09 12:35:00
6:55 AM,44.6,37.4,76,29.85,10.0,SSE,3.5,-,N/A,,Clear,160,2012-11-09 12:55:00
7:15 AM,44.6,37.4,76,29.86,10.0,Calm,Calm,-,N/A,,Clear,0,2012-11-09 13:15:00
7:35 AM,44.6,37.4,76,29.86,10.0,SE,3.5,-,N/A,,Clear,140,2012-11-09 13:35:00
7:55 AM,46.4,37.4,71,29.86,10.0,SE,3.5,-,N/A,,Clear,140,2012-11-09 13:55:00
8:15 AM,48.2,39.2,71,29.87,10.0,SSE,3.5,-,N/A,,Clear,160,2012-11-09 14:15:00
8:55 AM,51.8,39.2,62,29.86,10.0,SSE,5.8,-,N/A,,Clear,150,2012-11-09 14:55:00
9:15 AM,53.6,41.0,62,29.86,10.0,SSE,5.8,-,N/A,,Clear,150,2012-11-09 15:15:00
9:35 AM,55.4,42.8,63,29.86,10.0,South,9.2,-,N/A,,Clear,180,2012-11-09 15:35:00
9:55 AM,55.4,42.8,63,29.85,10.0,South,6.9,-,N/A,,Clear,170,2012-11-09 15:55:00
10:15 AM,57.2,42.8,59,29.85,10.0,SSE,6.9,-,N/A,,Clear,150,2012-11-09 16:15:00
10:55 AM,59.0,42.8,55,29.84,10.0,South,8.1,-,N/A,,Clear,170,2012-11-09 16:55:00
11:15 AM,59.0,42.8,55,29.84,10.0,SSE,6.9,-,N/A,,Clear,160,2012-11-09 17:15:00
11:35 AM,60.8,44.6,55,29.83,10.0,SSE,5.8,-,N/A,,Clear,160,2012-11-09 17:35:00
11:55 AM,60.8,44.6,55,29.82,10.0,SE,4.6,-,N/A,,Clear,140,2012-11-09 17:55:00
12:15 PM,60.8,44.6,55,29.80,10.0,SE,6.9,-,N/A,,Clear,140,2012-11-09 18:15:00
12:35 PM,62.6,46.4,55,29.79,10.0,SSE,9.2,-,N/A,,Clear,150,2012-11-09 18:35:00
12:55 PM,62.6,44.6,52,29.78,10.0,SE,5.8,-,N/A,,Clear,140,2012-11-09 18:55:00
1:15 PM,64.4,46.4,52,29.78,10.0,SE,9.2,-,N/A,,Clear,140,2012-11-09 19:15:00
1:35 PM,66.2,46.4,49,29.76,10.0,SE,9.2,-,N/A,,Clear,140,2012-11-09 19:35:00
1:55 PM,66.2,46.4,49,29.75,10.0,SE,10.4,-,N/A,,Clear,140,2012-11-09 19:55:00
2:15 PM,66.2,46.4,49,29.75,10.0,SSE,9.2,-,N/A,,Clear,150,2012-11-09 20:15:00
2:35 PM,68.0,46.4,46,29.75,10.0,SE,9.2,-,N/A,,Clear,140,2012-11-09 20:35:00
2:55 PM,68.0,48.2,49,29.75,10.0,SSE,9.2,-,N/A,,Clear,160,2012-11-09 20:55:00
3:15 PM,69.8,48.2,46,29.74,10.0,SSE,5.8,-,N/A,,Clear,150,2012-11-09 21:15:00
3:35 PM,69.8,48.2,46,29.74,10.0,SE,8.1,-,N/A,,Clear,140,2012-11-09 21:35:00
3:55 PM,68.0,48.2,49,29.74,10.0,SE,5.8,-,N/A,,Clear,140,2012-11-09 21:55:00
4:15 PM,68.0,48.2,49,29.74,10.0,SSE,8.1,-,N/A,,Clear,150,2012-11-09 22:15:00
4:35 PM,66.2,48.2,52,29.74,10.0,SSE,6.9,-,N/A,,Clear,150,2012-11-09 22:35:00
4:55 PM,66.2,48.2,52,29.73,10.0,SE,5.8,-,N/A,,Clear,130,2012-11-09 22:55:00
5:15 PM,64.4,48.2,56,29.73,10.0,SE,6.9,-,N/A,,Clear,130,2012-11-09 23:15:00
5:35 PM,64.4,50.0,59,29.73,10.0,SE,6.9,-,N/A,,Clear,130,2012-11-09 23:35:00
5:55 PM,62.6,50.0,63,29.73,10.0,ESE,5.8,-,N/A,,Scattered Clouds,120,2012-11-09 23:55:00
6:15 PM,62.6,51.8,68,29.73,10.0,ESE,6.9,-,N/A,,Scattered Clouds,120,2012-11-10 00:15:00
6:35 PM,62.6,51.8,68,29.74,10.0,SE,6.9,-,N/A,,Clear,130,2012-11-10 00:35:00
6:55 PM,62.6,51.8,68,29.74,10.0,SE,5.8,-,N/A,,Clear,130,2012-11-10 00:55:00
7:15 PM,62.6,51.8,68,29.74,10.0,SE,8.1,-,N/A,,Scattered Clouds,130,2012-11-10 01:15:00
7:35 PM,62.6,51.8,68,29.74,10.0,SE,8.1,-,N/A,,Scattered Clouds,130,2012-11-10 01:35:00
7:55 PM,62.6,51.8,68,29.74,10.0,SE,6.9,-,N/A,,Clear,140,2012-11-10 01:55:00
8:15 PM,60.8,51.8,72,29.74,10.0,South,4.6,-,N/A,,Scattered Clouds,180,2012-11-10 02:15:00
8:35 PM,60.8,51.8,72,29.74,10.0,SSE,8.1,-,N/A,,Clear,160,2012-11-10 02:35:00
8:55 PM,60.8,53.6,77,29.74,10.0,SSE,9.2,-,N/A,,Scattered Clouds,160,2012-11-10 02:55:00
9:15 PM,62.6,53.6,72,29.74,10.0,South,9.2,-,N/A,,Clear,170,2012-11-10 03:15:00
9:35 PM,62.6,53.6,72,29.74,10.0,South,10.4,-,N/A,,Clear,170,2012-11-10 03:35:00
9:55 PM,62.6,53.6,72,29.74,10.0,South,9.2,-,N/A,,Clear,170,2012-11-10 03:55:00
10:15 PM,62.6,53.6,72,29.73,10.0,SSE,8.1,-,N/A,,Clear,160,2012-11-10 04:15:00
10:35 PM,62.6,53.6,72,29.73,10.0,SSE,8.1,-,N/A,,Clear,160,2012-11-10 04:35:00
10:55 PM,60.8,53.6,77,29.72,10.0,SSE,8.1,-,N/A,,Clear,160,2012-11-10 04:55:00
11:15 PM,60.8,53.6,77,29.72,10.0,SSE,8.1,-,N/A,,Clear,160,2012-11-10 05:15:00
11:35 PM,62.6,53.6,72,29.71,10.0,SSE,9.2,-,N/A,,Clear,160,2012-11-10 05:35:00
11:55 PM,62.6,53.6,72,29.70,10.0,SSE,10.4,-,N/A,,Clear,160,2012-11-10 05:55:00